This is the latest recevied weather packets stored in our database for station/object N7SHZ. If no packets are shown the sender has not sent any weather packets the latest 10 day(s).
| Time | Temp. | Humidity | Pressure | Rain* | Wind** | Luminosity | Snow |
|---|---|---|---|---|---|---|---|
| 1788146636 | 54° F | 51% | 781.1 mmHg | - | - | 0 W/m² | - |
| 1788146332 | 54° F | 51% | 781.1 mmHg | - | - | 0 W/m² | - |
| 1788146031 | 54° F | 50% | 781.2 mmHg | - | - | 0 W/m² | - |
| 1788145726 | 54° F | 50% | 781.1 mmHg | - | - | 0 W/m² | - |
| 1788145424 | 54° F | 49% | 781.1 mmHg | - | - | 0 W/m² | - |
| 1788145118 | 55° F | 49% | 780.9 mmHg | - | - | 0 W/m² | - |
| 1788144818 | 55° F | 47% | 780.9 mmHg | - | - | 0 W/m² | - |
| 1788144513 | 55° F | 47% | 780.8 mmHg | - | - | 0 W/m² | - |
| 1788144212 | 55° F | 47% | 780.9 mmHg | - | - | 0 W/m² | - |
| 1788143912 | 55° F | 46% | 780.8 mmHg | - | - | 0 W/m² | - |
| 1788143610 | 55° F | 45% | 780.7 mmHg | - | - | 0 W/m² | - |
| 1788143306 | 55° F | 45% | 780.8 mmHg | - | - | 0 W/m² | - |
| 1788143005 | 55° F | 44% | 780.7 mmHg | - | - | 0 W/m² | - |
| 1788142700 | 55° F | 44% | 780.5 mmHg | - | - | 0 W/m² | - |
| 1788142399 | 55° F | 43% | 780.4 mmHg | - | - | 1 W/m² | - |
| 1788142095 | 56° F | 43% | 780.5 mmHg | - | - | 2 W/m² | - |
| 1788141795 | 56° F | 42% | 780.4 mmHg | - | - | 4 W/m² | - |
| 1788141491 | 56° F | 42% | 780.3 mmHg | - | - | 7 W/m² | - |
| 1788141186 | 57° F | 42% | 780.4 mmHg | - | - | 14 W/m² | - |
| 1788140886 | 57° F | 42% | 780.4 mmHg | - | - | 30 W/m² | - |
| 1788140580 | 57° F | 40% | 780.2 mmHg | - | - | 47 W/m² | - |
| 1788140277 | 58° F | 39% | 780.1 mmHg | - | - | 64 W/m² | - |
| 1788139976 | 58° F | 40% | 780.3 mmHg | - | - | 84 W/m² | - |
| 1788139671 | 59° F | 38% | 780.5 mmHg | - | - | 100 W/m² | - |
| 1788139367 | 59° F | 36% | 780.4 mmHg | - | - | 122 W/m² | - |
* Rain since midnight (hover to see other rain measurements)
** Current wind speed in m/s (hover to see current wind gust speed)